{"data":{"norad_id":43920,"epoch":"2026-09-20T00:25:53.397696Z","epoch_age_seconds":63604,"freshness":"FRESH","line1":"1 43920U 19001A   26263.01797914 -.00000341  00000+0  00000+0 0  9993","line2":"2 43920   0.0242 331.5332 0001284 334.9228 188.9601  1.00269946 55037","mean_motion":1.00269946,"eccentricity":0.0001284,"inclination_deg":0.0242,"raan_deg":331.5332,"arg_perigee_deg":334.9228,"mean_anomaly_deg":188.9601,"bstar":0,"rev_number":5503,"period_min":1436.1232427511,"perigee_km":35781.696489748,"apogee_km":35792.524525308,"semimajor_km":42165.247507528,"source":"CELESTRAK","updated_at":"2026-09-20T09:00:35.265055Z"}}